Weather Roundup
Issued by NWS Corpus Christi, TX

Home | Current Version | Previous Version | Text Only | Print | Product List | Glossary On
Versions: 1 2 3 4 5 6 7 8 9 10 11 12 13 14 15 16 17 18 19 20 21 22 23 24 25 26 27 28 29 30 31 32 33 34 35 36 37 38 39 40 41 42 43 44 45 46 47 48 49 50
000
ASUS44 KCRP 300710
HRRCRP

SOUTH TEXAS REGIONAL WEATHER ROUNDUP
NATIONAL WEATHER SERVICE CORPUS CHRISTI TX
200 AM CDT SAT JUL 30 2016


TXZ229>244-300800-
...CORPUS CHRISTI AREA OBSERVATIONS...

CITY           SKY/WX    TMP DP  RH WIND       PRES   REMARKS
CORPUS CHRISTI PTCLDY    81  78  91 S7        29.97F
NAS CORPUS CHR   N/A    N/A N/A N/A MISG      29.97S
ROCKPORT       PTCLDY    84  76  76 S10       29.97F HX  93
KINGSVILLE NAS CLEAR     78  78 100 S6        29.98F
ALICE          CLEAR     77  75  93 S5        29.98S
FALFURRIAS     PTCLDY    77  74  90 CALM      29.98F
$$

...VICTORIA AREA OBSERVATIONS...

CITY           SKY/WX    TMP DP  RH WIND       PRES   REMARKS
VICTORIA       CLEAR     77  74  90 CALM      30.00S
BEEVILLE       FAIR      77  77 100 CALM      29.99F
PLEASANTON     PTCLDY    78  73  86 CALM      30.02S
SAN ANTONIO    MOCLDY    79  73  82 S7        30.04S
$$

...LAREDO AREA OBSERVATIONS...

CITY           SKY/WX    TMP DP  RH WIND       PRES   REMARKS
LAREDO         PTCLDY    75  73  93 E7        29.98F
COTULLA        PTCLDY    76  69  79 S5        29.97F
DEL RIO        PTCLDY    78  69  73 SE6       29.99S
MCALLEN        CLEAR     82  75  79 SE5       29.98F
HEBBRONVILLE   CLEAR     78  74  87 SE7       30.01F
$$

...OTHER TEXAS OBSERVATIONS...

CITY           SKY/WX    TMP DP  RH WIND       PRES   REMARKS
BROWNSVILLE    CLEAR     80  77  90 S7        29.98F
HOUSTON        PTCLDY    80  75  84 CALM      30.02R
COL. STATION   MOCLDY    79  74  84 CALM      30.03R
AUSTIN         PTCLDY    77  74  90 S7        30.03R
WACO           CLOUDY    84  71  65 S17       30.00R
FORT WORTH     PTCLDY    84  72  67 S10       29.97F
WICHITA FALLS  PTCLDY    79  70  74 E6        29.97S
LUBBOCK        MOCLDY    73  59  61 N18G25    30.10R
EL PASO        PTCLDY    80  60  50 SE7       30.05R
$$

...MARINE OBSERVATIONS...

STATION/POSITION TIME  SKY/WX   TEMP    WIND        PRES    VSBY  WAVE   SWELL
                                AIR SEA DIR/SP/G                  HT/PER HT/PER
                 (UTC)          (F)     (DEG/KT/KT) (MB)    (MI)  (FT/S) (FT/S)
PORT ARANSAS     0600            84 88  150/ 15/ 16 1015.1F
BUOY 90 E PORT A 0550            86 87  150/ 14/ 16 1015.3          3/ 7   2/ 7
BUOY 45 SE BAFFI 0550            85 85  160/ 16/ 17 1014.5          3/ 5
BUOY 200 E PT IS 0550            86 87  120/  8/ 10 1014.7          2/ 6   2/ 6
BUOY 15 E GALVES 0550            86 88  160/ 12/ 16 1015.2          2/ 3   2/ 6
$$



USA.gov is the U.S. government's official web portal to all federal, state and local government web resources and services.